Weather History for Winner, SD

Change the Weather History Date:

Monday, February 18, 2013

  Actual Average Record
Temperature  
Mean Temperature 27 °F 28 °F  
Max Temperature 38 °F 38 °F 53 °F (2014)
Min Temperature 15 °F 18 °F 12 °F (2009)
Degree Days  
Heating Degree Days 38 37  
Month to date heating degree days 584 699  
Since 1 July heating degree days 4224 4654  
Cooling Degree Days 0 0  
Month to date cooling degree days 0 0  
Year to date cooling degree days 0 0  
Moisture  
Dew Point 18 °F    
Average Humidity 62    
Maximum Humidity 75    
Minimum Humidity 49    
Precipitation  
Precipitation T in 0.02 in 0.00 in (2014)
Month to date precipitation T 0.33  
Year to date precipitation T 0.58  
Sea Level Pressure  
Sea Level Pressure 29.96 in    
Wind  
Wind Speed 23 mph (NNW)    
Max Wind Speed 35 mph    
Max Gust Speed 43 mph    
Visibility 10 miles    
Events Snow    
T = Trace of Precipitation, MM = Missing Value Source: NWS Daily Summary

Daily Weather History Graph

Daily Weather History Graph

Search for Another Location

Airport:

Trip Planner

Search our weather history database for the weather conditions in past years. The results will help you decide how hot, cold, wet, or windy it might be!

Date:

Astronomy

Feb. 18, 2013 Rise Set
Actual Time 7:32 AM CST 6:14 PM CST
Civil Twilight 7:03 AM CST 6:43 PM CST
Nautical Twilight 6:30 AM CST 7:16 PM CST
Astronomical Twilight 5:57 AM CST 7:50 PM CST
Moon 11:56 AM CST 2:18 AM CST
Length of Visible Light 11h 40m
Length of Day
10h 41m
First Quarter, 58% of the Moon is Illuminated
Feb 18
First Quarter
Feb 25
Full
Mar 4
Last Quarter
Mar 11
New
Mar 19
First Quarter

Hourly Weather History & Observations

Time (CST) Temp. Windchill Dew Point Humidity Pressure Visibility Wind Dir Wind Speed Gust Speed Precip Events Conditions
12:53 AM 37.0 °F 27.0 °F 28.0 °F 70% 29.72 in 10.0 mi WNW 18.4 mph - N/A   Clear
1:53 AM 37.0 °F 25.9 °F 28.0 °F 70% 29.71 in 10.0 mi NW 23.0 mph 32.2 mph N/A   Clear
2:34 AM 35.6 °F 24.5 °F 28.4 °F 75% 29.71 in 10.0 mi NW 20.7 mph 27.6 mph N/A   Mostly Cloudy
2:53 AM 36.0 °F 23.7 °F 27.0 °F 70% 29.73 in 10.0 mi NW 26.5 mph 35.7 mph N/A   Overcast
3:53 AM 36.0 °F 25.3 °F 27.0 °F 70% 29.75 in 10.0 mi NW 19.6 mph - N/A   Overcast
4:53 AM 36.0 °F 23.0 °F 26.1 °F 67% 29.76 in 10.0 mi NW 29.9 mph 42.6 mph N/A   Overcast
5:51 AM 32.0 °F 18.1 °F 24.8 °F 75% 29.76 in 10.0 mi NW 27.6 mph 35.7 mph N/A   Overcast
6:53 AM 30.0 °F 16.0 °F 21.9 °F 72% 29.84 in 10.0 mi NNW 25.3 mph - N/A   Overcast
7:53 AM 27.0 °F 10.8 °F 19.0 °F 72% 29.89 in 10.0 mi NNW 29.9 mph 39.1 mph N/A   Overcast
8:53 AM 25.0 °F 8.4 °F 16.0 °F 69% 29.95 in 10.0 mi NNW 28.8 mph 36.8 mph N/A   Overcast
9:22 AM 24.8 °F 9.6 °F 15.8 °F 69% 29.91 in 10.0 mi NNW 23.0 mph 35.7 mph 0.00 in   Overcast
9:29 AM 24.8 °F 7.9 °F 15.8 °F 69% 29.91 in 10.0 mi NNW 29.9 mph 35.7 mph 0.00 in   Overcast
9:40 AM 24.8 °F 9.3 °F 15.8 °F 69% 29.91 in 9.0 mi NNW 24.2 mph 35.7 mph 0.00 in Snow Light Snow
9:53 AM 24.1 °F 7.7 °F 14.0 °F 65% 29.98 in 9.0 mi North 26.5 mph 35.7 mph 0.00 in   Overcast
10:43 AM 24.8 °F 9.6 °F 15.8 °F 69% 29.93 in 10.0 mi NW 23.0 mph 33.4 mph 0.00 in   Overcast
10:53 AM 25.0 °F 8.4 °F 16.0 °F 69% 29.99 in 4.0 mi NW 28.8 mph 34.5 mph 0.00 in Snow Light Snow
11:27 AM 26.6 °F 10.8 °F 14.0 °F 59% 29.94 in 10.0 mi NNW 27.6 mph 35.7 mph 0.00 in   Overcast
11:44 AM 26.6 °F 10.6 °F 14.0 °F 59% 29.95 in 10.0 mi NW 28.8 mph 39.1 mph 0.00 in   Overcast
11:53 AM 26.1 °F 9.3 °F 14.0 °F 60% 30.01 in 10.0 mi NW 31.1 mph 36.8 mph 0.00 in   Overcast
12:53 PM 28.0 °F 13.6 °F 15.1 °F 58% 30.01 in 10.0 mi NW 24.2 mph 33.4 mph 0.00 in   Overcast
1:24 PM 30.2 °F 15.7 °F 15.8 °F 55% 29.95 in 10.0 mi NW 27.6 mph 33.4 mph N/A   Mostly Cloudy
1:53 PM 32.0 °F 18.6 °F 16.0 °F 52% 30.00 in 10.0 mi NW 25.3 mph 35.7 mph N/A   Scattered Clouds
2:53 PM 30.9 °F 17.5 °F 16.0 °F 54% 30.01 in 10.0 mi NW 24.2 mph 29.9 mph N/A   Mostly Cloudy
3:53 PM 30.9 °F 17.5 °F 15.1 °F 52% 30.03 in 10.0 mi NW 24.2 mph 29.9 mph N/A   Partly Cloudy
4:53 PM 30.0 °F 16.9 °F 15.1 °F 54% 30.04 in 10.0 mi NNW 21.9 mph 27.6 mph N/A   Overcast
5:53 PM 27.0 °F 13.2 °F 17.1 °F 66% 30.07 in 10.0 mi North 20.7 mph - N/A   Overcast
6:53 PM 25.0 °F 12.6 °F 18.0 °F 75% 30.10 in 10.0 mi NNW 15.0 mph - 0.00 in   Overcast
7:53 PM 23.0 °F 9.2 °F 15.1 °F 72% 30.14 in 10.0 mi NNW 17.3 mph - N/A   Partly Cloudy
8:53 PM 21.0 °F 7.1 °F 12.9 °F 71% 30.17 in 10.0 mi NNW 16.1 mph 26.5 mph N/A   Overcast
9:53 PM 19.0 °F 3.6 °F 10.9 °F 71% 30.20 in 10.0 mi North 18.4 mph - N/A   Scattered Clouds
10:53 PM 17.1 °F -0.3 °F 10.0 °F 74% 30.22 in 10.0 mi NNW 21.9 mph - N/A   Partly Cloudy
11:29 PM 15.8 °F 4.2 °F 10.4 °F 79% 30.15 in 10.0 mi NNW 9.2 mph - N/A   Mostly Cloudy
11:53 PM 15.1 °F 0.5 °F 10.0 °F 80% 30.25 in 6.0 mi North 13.8 mph - 0.00 in Snow Light Snow